GFSNW_700_temp_327.txt.gz
Temp
4 4 5 5 5 5 5 6 6 6 6 7 7 6 5 4 3 3 3 3 2 2 1 -0 -1 -2 -2 -2 -3 -3 -4 -4 -4 -3 -3 -3 -3 -3 -3 -3 -3 -3 -3 -2
4 4 5 5 5 5 5 6 6 6 6 6 7 5 4 4 3 3 3 2 2 2 1 -0 -2 -2 -3 -3 -3 -4 -4 -4 -4 -2 -3 -3 -2 -3 -3 -4 -3 -3 -3 -2
4 4 5 5 5 5 5 6 6 6 6 5 6 5 4 4 3 3 3 2 2 2 1 0 -2 -3 -3 -3 -4 -4 -3 -4 -5 -5 -5 -5 -4 -2 -2 -3 -3 -2 -2 -2
4 4 4 5 5 5 5 5 5 6 5 5 4 4 4 3 3 3 2 2 2 1 1 -0 -2 -3 -3 -4 -4 -4 -4 -4 -5 -4 -4 -4 -4 -4 -3 -2 -2 -2 -2 -1
3 4 4 4 5 5 5 5 5 5 5 5 4 4 4 3 3 2 2 2 2 1 0 -1 -2 -3 -4 -5 -4 -4 -5 -5 -4 -3 -3 -3 -3 -3 -3 -3 -2 -2 -2 -1
3 4 4 4 5 5 5 5 5 5 4 4 4 4 3 2 2 2 2 1 1 1 -0 -1 -3 -4 -4 -5 -5 -5 -5 -5 -4 -2 -3 -2 -3 -4 -3 -3 -2 -1 -1 -1
3 3 4 4 4 5 5 5 5 5 4 4 4 3 3 2 2 2 1 1 1 0 -1 -3 -4 -4 -4 -5 -5 -6 -5 -5 -5 -3 -3 -3 -3 -3 -3 -3 -2 -1 -1 -2
3 3 3 4 4 4 5 4 4 5 5 4 3 2 2 2 2 1 1 1 1 -0 -1 -3 -4 -5 -5 -6 -6 -6 -6 -5 -5 -5 -5 -3 -3 -3 -3 -3 -3 -1 -2 -2
2 3 3 4 4 4 4 4 4 4 4 3 3 2 2 1 1 1 1 0 0 -1 -2 -3 -5 -6 -6 -6 -6 -6 -5 -5 -5 -5 -5 -5 -4 -3 -3 -3 -3 -2 -2 -2
2 3 3 3 3 4 4 4 4 4 4 3 2 1 1 1 1 1 0 -0 -1 -2 -3 -4 -5 -7 -6 -7 -7 -7 -6 -5 -6 -5 -5 -4 -4 -3 -3 -3 -3 -2 -1 -1
2 2 3 3 3 3 3 3 3 4 3 3 2 1 1 0 0 -0 -1 -1 -2 -3 -3 -5 -5 -6 -7 -7 -8 -8 -7 -7 -7 -6 -6 -5 -4 -3 -3 -3 -4 -2 -1 -1
1 2 2 3 3 3 3 3 3 3 3 2 1 0 -0 -0 -1 -1 -1 -3 -3 -4 -5 -5 -6 -6 -7 -8 -8 -8 -8 -8 -8 -7 -7 -6 -4 -5 -4 -3 -3 -2 -1 -1
1 2 2 2 2 2 3 3 2 3 2 1 -0 -0 -1 -2 -2 -2 -2 -3 -4 -5 -5 -6 -6 -7 -8 -8 -9 -9 -8 -8 -8 -7 -6 -5 -4 -4 -4 -3 -3 -2 -1 -1
1 1 2 2 2 2 2 2 2 2 2 1 -1 -1 -2 -2 -2 -3 -3 -4 -5 -5 -5 -5 -6 -7 -8 -8 -8 -8 -8 -7 -7 -6 -6 -4 -4 -4 -3 -3 -3 -2 -2 -1
0 1 1 1 2 1 2 2 1 1 1 1 -1 -2 -2 -3 -3 -3 -4 -4 -4 -5 -5 -5 -6 -7 -7 -7 -8 -8 -8 -8 -8 -6 -6 -5 -4 -3 -3 -3 -2 -2 -2 -1
0 0 1 1 1 1 1 1 1 1 0 0 -1 -3 -3 -3 -4 -4 -4 -4 -5 -5 -5 -5 -6 -6 -7 -7 -8 -8 -7 -7 -7 -5 -5 -4 -4 -3 -3 -2 -2 -1 -1 -1
-1 -0 -0 -0 0 0 0 0 0 0 -0 -0 -2 -4 -4 -4 -4 -4 -4 -5 -5 -5 -5 -7 -6 -6 -6 -7 -8 -7 -6 -6 -5 -4 -4 -4 -3 -4 -3 -3 -2 -1 -1 -1
-1 -1 -1 -1 -1 -1 -0 -0 -0 -1 -1 -1 -1 -4 -4 -4 -4 -4 -5 -5 -5 -5 -6 -7 -7 -7 -7 -7 -7 -6 -5 -5 -5 -3 -3 -3 -3 -3 -3 -2 -2 -2 -1 -1
-2 -2 -1 -1 -1 -1 -1 -1 -1 -1 -1 -1 -2 -3 -4 -4 -4 -5 -5 -5 -6 -6 -6 -7 -7 -8 -8 -7 -6 -6 -5 -4 -4 -3 -4 -3 -3 -3 -3 -2 -2 -2 -1 -1
-3 -3 -2 -2 -2 -2 -2 -2 -2 -2 -2 -2 -3 -3 -3 -4 -4 -5 -6 -6 -6 -6 -6 -6 -7 -8 -7 -6 -6 -5 -4 -4 -4 -4 -3 -3 -3 -3 -2 -2 -2 -2 -2 -1
-3 -3 -3 -3 -3 -3 -3 -3 -3 -3 -3 -3 -4 -4 -4 -4 -5 -5 -6 -6 -6 -6 -6 -6 -7 -8 -7 -6 -6 -5 -4 -4 -4 -4 -3 -3 -3 -3 -2 -2 -1 -2 -2 -2
-4 -4 -4 -4 -4 -4 -3 -3 -3 -3 -3 -4 -5 -5 -5 -5 -5 -6 -6 -6 -7 -7 -6 -7 -7 -7 -7 -6 -5 -5 -4 -4 -4 -3 -3 -2 -2 -2 -2 -1 -1 -1 -1 -1
-7 -5 -5 -4 -4 -4 -3 -3 -3 -3 -3 -4 -5 -5 -5 -6 -6 -6 -6 -7 -7 -7 -7 -7 -7 -7 -7 -7 -6 -4 -5 -4 -4 -3 -3 -2 -2 -2 -2 -1 -1 -1 -1 -1
-7 -6 -5 -4 -4 -4 -3 -3 -3 -3 -4 -5 -5 -6 -6 -6 -6 -7 -7 -7 -7 -7 -7 -8 -7 -7 -6 -6 -7 -6 -4 -4 -4 -4 -3 -3 -2 -2 -2 -1 -1 -1 -1 -1
-7 -6 -5 -5 -4 -4 -4 -4 -4 -4 -5 -5 -6 -6 -6 -6 -7 -7 -7 -7 -7 -7 -7 -8 -7 -7 -7 -6 -6 -7 -6 -5 -5 -4 -4 -3 -3 -3 -2 -2 -2 -2 -1 -1
-8 -6 -5 -5 -5 -5 -5 -5 -5 -6 -6 -6 -6 -7 -7 -7 -7 -7 -7 -7 -7 -7 -8 -8 -8 -7 -7 -7 -7 -7 -7 -6 -5 -5 -4 -3 -3 -3 -3 -3 -2 -2 -2 -2
-7 -6 -6 -6 -6 -6 -7 -7 -6 -6 -6 -7 -7 -7 -8 -7 -7 -8 -8 -8 -8 -8 -8 -8 -8 -8 -6 -7 -7 -7 -7 -7 -7 -7 -6 -4 -4 -3 -3 -3 -3 -3 -2 -2

GFSNW_700_temp_330.txt.gz
Temp
4 4 4 5 5 5 5 6 6 6 6 7 7 6 5 4 3 3 3 3 3 2 1 0 0 -1 -2 -3 -3 -3 -3 -3 -4 -3 -3 -3 -4 -3 -3 -4 -4 -4 -3 -3
4 4 4 5 5 5 5 6 6 6 6 6 7 5 5 4 3 3 3 2 2 2 1 0 -1 -1 -2 -3 -3 -3 -4 -4 -5 -3 -3 -3 -3 -4 -3 -3 -3 -3 -3 -2
4 4 4 5 5 5 5 5 5 6 6 6 6 5 4 4 3 3 2 2 2 2 1 1 -0 -2 -3 -4 -4 -4 -4 -5 -6 -6 -5 -5 -4 -3 -2 -3 -3 -2 -3 -2
4 4 4 4 5 5 5 5 6 6 5 5 5 5 4 4 3 2 2 2 2 1 1 0 -1 -2 -3 -4 -5 -4 -4 -5 -4 -4 -4 -4 -4 -4 -3 -3 -3 -2 -2 -2
4 4 4 4 5 5 5 5 6 5 5 5 4 4 4 3 3 3 2 2 2 1 1 0 -1 -2 -4 -4 -5 -4 -5 -4 -3 -3 -4 -3 -3 -3 -4 -3 -3 -3 -2 -3
3 4 4 4 4 5 5 5 5 5 5 5 4 4 3 3 2 2 2 1 1 1 0 -0 -1 -3 -4 -5 -5 -5 -5 -5 -3 -3 -3 -3 -3 -3 -4 -4 -2 -2 -3 -4
4 4 4 4 4 4 5 5 5 5 5 4 4 3 3 2 2 2 2 1 1 0 -0 -1 -2 -4 -5 -5 -6 -6 -5 -5 -4 -3 -3 -3 -4 -3 -3 -4 -3 -3 -3 -3
3 3 4 4 4 4 4 4 5 5 5 4 3 3 3 2 2 2 1 1 0 -0 -1 -2 -4 -5 -5 -6 -6 -6 -6 -6 -5 -5 -5 -4 -3 -3 -3 -3 -3 -3 -3 -2
3 3 3 4 4 4 4 4 5 5 5 3 3 2 2 2 1 1 1 1 0 -0 -1 -3 -4 -6 -7 -6 -6 -7 -6 -6 -6 -5 -5 -5 -5 -3 -3 -3 -3 -2 -2 -2
3 3 3 3 4 4 4 4 4 4 4 3 2 2 2 1 1 1 1 0 -0 -1 -2 -3 -5 -6 -7 -7 -8 -8 -7 -6 -7 -6 -5 -5 -4 -3 -3 -3 -4 -2 -2 -2
2 3 3 3 3 4 4 4 4 4 4 3 2 1 1 1 1 1 0 -0 -1 -2 -3 -5 -5 -6 -7 -8 -9 -9 -8 -8 -8 -7 -6 -6 -5 -4 -3 -4 -3 -2 -2 -1
2 2 3 3 3 3 4 3 4 4 3 3 1 1 1 1 0 -0 -0 -1 -2 -3 -4 -5 -6 -7 -8 -8 -8 -9 -8 -9 -9 -8 -8 -7 -5 -5 -4 -3 -3 -2 -2 -1
2 2 2 3 3 3 3 3 3 3 3 2 0 0 0 -0 -0 -1 -1 -2 -3 -4 -5 -5 -6 -7 -8 -8 -9 -8 -8 -8 -8 -8 -7 -5 -4 -5 -4 -3 -3 -2 -2 -2
1 2 2 2 3 3 3 3 3 2 3 2 -0 -1 -1 -1 -1 -2 -2 -3 -4 -5 -5 -6 -6 -7 -8 -8 -8 -8 -8 -8 -7 -6 -6 -4 -4 -4 -4 -3 -2 -2 -2 -2
1 2 2 2 2 2 3 2 2 2 2 2 -0 -2 -1 -1 -2 -3 -3 -4 -4 -4 -5 -6 -6 -7 -7 -7 -8 -8 -8 -8 -7 -5 -5 -5 -4 -4 -4 -3 -2 -2 -2 -2
1 1 1 1 1 2 2 2 1 2 1 2 -0 -2 -2 -2 -3 -3 -4 -4 -5 -4 -5 -5 -6 -6 -7 -7 -7 -7 -7 -6 -7 -4 -4 -4 -4 -4 -3 -2 -2 -1 -2 -2
0 1 1 1 1 1 1 2 1 1 1 1 -1 -3 -2 -3 -3 -4 -4 -4 -5 -5 -5 -6 -6 -6 -6 -7 -7 -6 -5 -5 -4 -4 -4 -4 -4 -4 -3 -2 -2 -2 -2 -2
-0 0 0 0 1 1 1 1 1 1 0 0 -0 -2 -3 -3 -4 -4 -4 -5 -5 -5 -6 -6 -6 -6 -6 -7 -6 -5 -5 -5 -4 -4 -4 -4 -4 -3 -3 -2 -2 -2 -2 -2
-1 -0 -0 -0 -0 0 0 0 0 0 -0 -0 -1 -1 -3 -3 -4 -4 -5 -5 -5 -6 -6 -7 -7 -7 -7 -7 -6 -5 -5 -4 -4 -4 -4 -4 -4 -4 -3 -2 -2 -2 -2 -1
-1 -1 -1 -1 -1 -1 -1 -1 -1 -1 -1 -1 -1 -1 -2 -3 -4 -5 -5 -5 -5 -6 -6 -6 -7 -8 -7 -6 -6 -6 -5 -5 -4 -3 -4 -3 -3 -3 -3 -3 -3 -2 -2 -1
-2 -1 -1 -1 -1 -1 -1 -1 -1 -1 -1 -1 -2 -3 -3 -3 -4 -4 -5 -5 -5 -6 -6 -6 -7 -7 -7 -6 -5 -5 -4 -4 -4 -4 -3 -3 -3 -3 -3 -2 -2 -2 -2 -1
-2 -2 -2 -2 -2 -2 -2 -1 -1 -1 -1 -2 -3 -3 -3 -4 -4 -5 -5 -5 -6 -6 -6 -7 -7 -7 -7 -6 -5 -5 -4 -4 -4 -4 -3 -3 -3 -3 -2 -2 -2 -2 -1 -1
-4 -4 -3 -3 -3 -2 -2 -2 -1 -1 -1 -2 -2 -3 -3 -4 -4 -5 -5 -6 -6 -6 -7 -7 -7 -7 -7 -7 -6 -5 -5 -5 -4 -4 -3 -3 -2 -2 -2 -2 -2 -2 -1 -1
-5 -5 -4 -3 -3 -2 -2 -1 -1 -1 -1 -2 -3 -3 -3 -4 -5 -5 -6 -6 -6 -7 -7 -7 -7 -7 -7 -6 -6 -6 -5 -5 -5 -4 -4 -3 -2 -2 -2 -2 -2 -1 -1 -1
-6 -6 -5 -4 -3 -3 -2 -2 -2 -2 -3 -3 -3 -4 -4 -5 -5 -5 -6 -7 -7 -7 -7 -7 -7 -7 -7 -7 -6 -6 -6 -5 -5 -5 -4 -4 -3 -3 -2 -2 -2 -2 -1 -1
-7 -6 -5 -4 -3 -3 -3 -3 -3 -3 -4 -4 -5 -5 -5 -5 -5 -6 -7 -7 -7 -7 -7 -7 -7 -7 -7 -7 -7 -6 -6 -6 -6 -5 -5 -4 -4 -3 -3 -2 -2 -2 -2 -2
-7 -5 -5 -4 -5 -4 -4 -4 -5 -5 -5 -5 -5 -5 -6 -6 -6 -6 -7 -7 -7 -7 -7 -7 -7 -7 -7 -7 -7 -7 -7 -6 -6 -6 -5 -5 -5 -4 -3 -3 -3 -3 -3 -2

GFSNW_700_temp_336.txt.gz
Temp
4 4 4 5 5 5 5 5 6 6 6 6 6 6 5 5 4 4 4 3 3 3 3 2 1 -0 -1 -1 -0 -2 -2 -3 -2 -3 -3 -4 -3 -4 -4 -3 -3 -3 -2 -2
4 4 4 5 5 5 5 5 6 6 6 6 6 6 5 5 4 4 4 3 3 3 2 1 1 -0 -1 -1 -1 -1 -2 -3 -1 -1 -3 -3 -4 -3 -3 -3 -3 -3 -1 -2
4 4 4 4 5 5 5 5 6 6 6 6 6 6 5 4 4 3 3 3 3 2 2 1 0 -1 -2 -2 -2 -1 -2 -3 -3 -1 -4 -4 -4 -4 -3 -3 -2 -3 -4 -3
4 4 4 4 5 5 5 6 6 6 5 5 5 5 5 4 4 3 3 3 2 2 1 0 -1 -2 -2 -3 -2 -2 -2 -4 -4 -4 -4 -4 -4 -4 -3 -3 -3 -3 -4 -4
4 4 4 4 5 5 5 6 6 6 6 5 5 5 4 4 3 3 3 2 2 1 1 0 -1 -2 -4 -4 -4 -3 -3 -4 -5 -4 -4 -4 -4 -4 -4 -4 -5 -4 -4 -4
4 4 4 4 5 5 5 6 6 6 5 5 5 5 4 3 3 2 2 2 1 1 0 -1 -2 -4 -4 -5 -5 -4 -5 -5 -4 -4 -3 -3 -3 -4 -4 -3 -3 -5 -3 -4
3 4 4 4 5 5 5 6 6 6 5 5 5 4 3 3 3 2 2 1 1 -0 -1 -2 -4 -5 -6 -6 -5 -5 -6 -4 -4 -4 -4 -2 -4 -4 -4 -4 -3 -3 -4 -3
4 4 4 4 5 5 5 5 5 6 5 5 4 3 3 2 2 2 2 1 0 -1 -2 -5 -6 -6 -6 -7 -6 -6 -6 -6 -5 -4 -4 -4 -4 -4 -4 -4 -4 -3 -3 -3
4 4 4 4 5 5 5 5 5 5 6 4 4 3 2 2 2 1 1 0 -1 -2 -3 -5 -5 -6 -6 -6 -6 -7 -6 -6 -5 -5 -3 -2 -5 -4 -4 -4 -4 -2 -2 -2
3 4 4 4 5 5 5 5 5 5 6 4 3 2 2 2 1 1 0 -1 -2 -3 -5 -5 -6 -7 -8 -7 -8 -8 -7 -7 -6 -5 -4 -5 -4 -4 -4 -3 -3 -2 -2 -2
3 3 4 4 5 5 5 5 5 5 5 4 2 2 2 2 1 0 -0 -1 -2 -3 -4 -6 -7 -7 -8 -8 -9 -9 -8 -7 -7 -6 -5 -5 -4 -4 -3 -3 -3 -2 -2 -2
3 3 4 4 4 4 4 5 5 5 5 4 2 1 2 1 0 -0 -1 -1 -2 -4 -5 -6 -7 -7 -8 -7 -7 -8 -7 -8 -7 -7 -7 -5 -4 -4 -3 -3 -2 -2 -2 -2
3 3 4 4 4 4 4 4 5 4 5 3 1 1 1 0 -1 -1 -1 -2 -3 -4 -4 -6 -7 -7 -8 -7 -8 -7 -8 -7 -6 -6 -5 -4 -4 -3 -3 -3 -3 -2 -2 -2
3 3 4 4 4 4 4 4 4 4 4 3 0 0 -0 -1 -1 -1 -2 -2 -4 -4 -4 -5 -7 -7 -7 -8 -7 -7 -7 -6 -5 -5 -4 -4 -4 -3 -3 -3 -2 -2 -2 -2
2 3 3 3 4 4 4 3 4 3 4 4 1 -1 -1 -1 -2 -2 -2 -3 -3 -4 -4 -5 -6 -6 -6 -7 -7 -6 -6 -5 -4 -4 -4 -4 -3 -3 -3 -2 -2 -2 -2 -2
2 3 3 3 3 4 3 3 3 3 3 4 -0 -1 -2 -2 -2 -2 -2 -3 -4 -3 -3 -4 -5 -5 -6 -7 -6 -6 -6 -6 -4 -4 -4 -3 -3 -3 -2 -2 -2 -2 -2 -1
2 2 3 3 3 3 3 3 3 3 2 3 -0 -3 -3 -3 -3 -2 -2 -3 -4 -3 -3 -4 -5 -5 -5 -6 -5 -6 -5 -5 -4 -4 -4 -3 -3 -3 -3 -2 -2 -2 -1 -1
2 2 2 2 2 2 3 3 3 2 2 2 1 -2 -3 -3 -3 -3 -3 -4 -4 -3 -4 -4 -5 -5 -5 -6 -5 -5 -5 -4 -4 -4 -4 -3 -3 -3 -3 -2 -2 -2 -2 -1
1 2 1 2 2 2 2 2 2 2 2 2 1 -1 -3 -4 -4 -3 -4 -3 -4 -4 -5 -4 -5 -6 -6 -5 -5 -4 -4 -4 -4 -4 -4 -4 -3 -3 -3 -3 -3 -3 -2 -1
1 1 1 1 1 2 2 1 1 1 2 2 1 1 -1 -3 -3 -4 -4 -4 -4 -5 -5 -4 -6 -6 -7 -6 -5 -5 -4 -4 -4 -3 -3 -4 -3 -3 -3 -3 -3 -2 -2 -1
1 1 2 1 1 1 1 1 1 1 1 1 0 0 -0 -2 -3 -3 -3 -4 -4 -5 -5 -6 -7 -7 -6 -6 -5 -5 -4 -4 -4 -3 -3 -3 -3 -3 -3 -3 -3 -3 -2 -2
0 1 1 0 -0 0 1 1 1 1 1 1 0 -0 -1 -2 -3 -3 -3 -4 -4 -5 -5 -5 -6 -6 -6 -6 -6 -5 -5 -5 -4 -4 -4 -4 -3 -3 -3 -3 -3 -3 -3 -2
-0 -0 -0 -0 -0 0 0 1 1 1 2 1 1 -1 -2 -3 -3 -3 -3 -4 -4 -5 -5 -5 -6 -6 -6 -5 -5 -6 -5 -5 -4 -4 -4 -4 -3 -3 -3 -2 -3 -3 -2 -2
-1 -0 -0 -0 0 0 1 1 2 2 1 1 0 -1 -1 -2 -2 -2 -3 -4 -5 -5 -5 -5 -5 -6 -6 -6 -5 -5 -5 -5 -5 -5 -5 -5 -4 -3 -3 -3 -2 -2 -2 -2
-1 -0 -0 -0 0 1 1 1 1 1 1 0 -1 -1 -1 -2 -2 -2 -3 -4 -5 -5 -4 -4 -5 -6 -6 -6 -5 -5 -5 -5 -5 -5 -5 -5 -5 -4 -4 -3 -3 -3 -2 -2
-1 -1 -1 0 0 0 0 0 1 1 -0 -1 -2 -2 -2 -2 -2 -2 -2 -3 -3 -3 -4 -5 -5 -5 -6 -5 -5 -5 -5 -5 -5 -5 -5 -4 -4 -5 -5 -4 -3 -3 -3 -3
-2 -1 -1 -1 -1 -0 -0 -0 -0 -0 -1 -2 -2 -2 -2 -2 -2 -3 -2 -3 -3 -3 -5 -5 -5 -6 -6 -6 -5 -5 -5 -5 -5 -5 -5 -5 -4 -4 -4 -4 -4 -4 -3 -3

GFSNW_700_temp_342.txt.gz
Temp
3 3 3 3 4 4 4 4 4 5 4 3 3 4 3 4 5 5 5 3 3 3 3 3 2 1 2 2 1 -0 1 1 2 1 -0 -1 -1 -2 -3 -2 -2 -2 -1 -3
3 3 3 3 4 4 4 3 4 4 4 3 3 4 4 4 4 4 4 4 4 3 2 2 1 0 2 1 2 -0 0 1 2 2 0 -1 -2 -2 -2 -2 -2 -3 -1 -2
3 3 3 3 3 3 4 4 4 4 4 3 4 4 5 5 5 4 4 4 4 2 1 1 0 0 1 0 1 0 0 1 -0 -2 -3 -3 -3 -3 -2 -2 -2 -2 -2 -1
3 3 3 3 3 3 4 4 3 3 4 3 2 3 4 4 4 4 4 3 1 1 1 1 -0 -1 -2 -2 -1 -1 -1 -1 -1 -3 -3 -2 -3 -2 -2 -1 -2 -2 -1 -1
3 3 3 3 3 4 4 4 4 4 2 2 4 4 2 4 4 2 2 1 2 1 -0 -1 -0 -1 -2 -2 -2 -2 -2 -2 -2 -3 -4 -3 -3 -3 -3 -2 -0 -0 -1 -1
3 3 3 3 4 4 4 4 4 4 4 3 4 4 4 4 4 3 1 0 1 1 0 -0 -1 -2 -2 -3 -3 -3 -2 -2 -2 -3 -3 -3 -3 -5 -5 -4 -3 -2 -1 -2
3 3 3 3 4 4 4 4 4 3 3 3 4 4 4 4 3 3 3 1 1 0 -0 -2 -3 -4 -4 -4 -4 -4 -3 -3 -2 -2 -3 -2 -5 -5 -5 -4 -4 -3 -2 -2
2 3 3 4 4 4 4 4 2 4 5 5 5 4 4 3 3 3 2 1 1 -0 -2 -3 -3 -3 -4 -4 -4 -4 -4 -3 -2 -2 -4 -4 -4 -4 -4 -4 -4 -3 -4 -3
2 3 3 4 4 4 4 5 6 5 6 3 4 3 3 3 3 2 1 0 -1 -2 -2 -2 -2 -4 -4 -3 -4 -4 -4 -4 -3 -3 -2 -2 -4 -4 -4 -4 -4 -3 -2 -3
3 3 3 3 4 4 4 4 5 6 6 5 3 1 2 2 1 1 0 -0 -2 -2 -2 -2 -3 -4 -4 -5 -5 -6 -5 -4 -4 -3 -4 -5 -5 -4 -4 -3 -4 -3 -2 -4
3 3 3 4 4 4 4 5 5 5 6 5 4 4 3 2 0 -0 -0 -1 -3 -3 -3 -3 -4 -4 -5 -6 -6 -6 -5 -5 -5 -4 -3 -4 -4 -4 -3 -3 -3 -2 -3 -4
2 3 3 3 4 4 5 5 5 5 5 4 3 2 2 2 1 2 0 -1 -1 -2 -4 -3 -4 -5 -5 -5 -5 -5 -6 -5 -5 -5 -5 -4 -4 -3 -3 -2 -2 -2 -4 -4
2 3 3 4 4 5 5 4 5 4 5 4 2 2 1 1 2 1 1 0 -0 -4 -4 -4 -4 -6 -5 -5 -5 -6 -5 -4 -5 -4 -4 -4 -3 -3 -3 -3 -2 -3 -4 -2
3 3 3 3 4 4 4 3 5 5 5 4 1 1 1 1 0 -0 -1 -0 -2 -4 -4 -4 -5 -5 -5 -5 -6 -4 -4 -4 -4 -4 -4 -3 -4 -3 -2 -2 -3 -3 -2 -2
3 3 3 3 4 4 4 4 4 4 5 4 1 -1 0 0 -1 -1 -1 -1 -4 -4 -4 -4 -4 -5 -6 -5 -5 -5 -4 -4 -4 -4 -4 -4 -3 -3 -2 -2 -1 -2 -2 -2
3 3 3 4 4 4 3 3 3 3 3 5 1 -1 -1 -1 -1 -2 -2 -2 -2 -3 -3 -3 -4 -4 -5 -5 -5 -5 -4 -4 -4 -4 -4 -3 -3 -2 -2 -3 -3 -2 -2 -1
3 3 3 3 3 3 3 4 4 4 4 5 0 -2 -1 -1 -2 -2 -2 -2 -2 -2 -1 -3 -4 -4 -3 -3 -4 -5 -4 -4 -4 -4 -3 -3 -3 -3 -3 -3 -3 -3 -2 -1
2 2 3 3 3 2 3 3 3 3 4 4 2 -1 -2 -1 -2 -2 -3 -3 -2 -3 -2 -3 -3 -3 -4 -5 -4 -4 -4 -4 -4 -3 -4 -3 -3 -3 -3 -3 -3 -3 -4 -2
2 2 2 3 2 2 3 3 2 3 3 4 2 1 -2 -1 -2 -2 -3 -3 -3 -4 -4 -3 -3 -3 -5 -4 -4 -4 -4 -4 -4 -3 -3 -3 -3 -3 -3 -3 -3 -4 -4 -2
2 2 2 2 2 2 2 2 2 2 3 2 2 2 1 -0 -2 -3 -3 -4 -4 -4 -4 -4 -3 -4 -5 -4 -3 -3 -4 -4 -3 -3 -3 -3 -3 -3 -3 -3 -3 -3 -2 -2
1 1 2 2 1 1 1 1 2 2 2 1 0 1 1 -2 -1 -2 -3 -3 -4 -3 -3 -4 -4 -4 -4 -5 -5 -4 -4 -3 -3 -3 -3 -3 -3 -3 -3 -3 -3 -3 -3 -2
1 1 2 1 1 1 2 2 2 2 2 1 2 1 1 0 -1 -1 -2 -3 -3 -4 -3 -4 -3 -3 -3 -4 -5 -4 -4 -4 -4 -3 -3 -3 -3 -3 -2 -2 -3 -3 -2 -2
0 1 0 0 1 2 2 2 2 2 3 2 2 1 0 -0 -0 -1 -1 -2 -3 -2 -2 -4 -3 -1 -3 -3 -4 -4 -4 -4 -4 -4 -4 -3 -3 -3 -3 -2 -2 -2 -2 -2
-0 0 0 1 1 1 1 1 3 4 4 3 2 1 0 0 0 -0 -1 -3 -2 -4 -3 -3 -3 -2 -3 -3 -3 -3 -4 -3 -3 -4 -4 -4 -3 -3 -3 -3 -3 -2 -2 -2
0 1 1 1 2 2 3 3 3 3 3 3 2 1 1 0 0 -0 -1 -2 -3 -3 -3 -1 -2 -2 -3 -3 -3 -3 -3 -3 -3 -3 -3 -4 -4 -4 -3 -3 -3 -3 -3 -3
1 1 1 2 2 2 2 3 3 3 2 1 1 1 -0 0 0 -0 -1 -1 -3 -3 -1 -1 -2 -3 -3 -3 -3 -3 -3 -3 -4 -4 -4 -4 -4 -4 -4 -3 -3 -3 -3 -3
1 1 1 2 1 2 2 2 2 1 0 1 1 1 -0 -0 -0 -2 -3 -3 -3 -0 0 -1 -2 -3 -3 -3 -4 -3 -3 -3 -4 -4 -4 -4 -5 -4 -5 -4 -4 -4 -4 -4

GFSNW_700_temp_345.txt.gz
Temp
2 2 3 3 3 3 4 4 5 4 4 3 3 3 4 5 4 4 4 4 4 4 3 3 3 2 2 2 2 0 1 1 1 -0 -1 -1 0 -3 -1 -2 -2 -2 -2 -2
2 2 2 3 3 3 3 3 4 4 3 3 3 3 4 4 3 4 4 4 4 3 2 3 2 2 2 2 2 1 1 1 1 -1 -1 -1 -1 -2 -2 -2 -2 -3 -4 -2
2 2 2 3 3 2 3 3 4 3 3 2 3 3 4 4 4 4 4 4 3 2 2 2 1 1 1 1 1 -0 0 0 0 -1 -3 -2 -2 -2 -2 -2 -2 -2 -2 -2
1 2 2 3 2 2 3 3 3 4 3 3 3 3 4 4 4 4 4 2 1 1 1 1 0 -1 -1 -1 -1 -1 -1 -2 -1 -3 -3 -2 -2 -2 -2 -1 -2 -2 -2 -2
1 2 3 3 2 2 3 3 3 3 3 3 3 2 2 4 4 3 2 2 2 2 1 1 -0 -1 -1 -2 -2 -2 -2 -3 -2 -4 -3 -2 -2 -2 -2 -2 -2 -2 -2 -2
1 2 2 2 2 2 2 3 3 3 2 2 3 2 4 3 3 2 1 2 2 1 1 -0 -1 -1 -2 -2 -3 -2 -3 -2 -3 -4 -3 -3 -3 -3 -3 -4 -2 -2 -3 -2
1 2 2 3 3 2 3 3 3 3 3 2 3 3 3 4 4 4 3 2 1 0 -1 -2 -3 -3 -4 -4 -3 -4 -3 -3 -2 -3 -3 -4 -5 -4 -4 -4 -3 -3 -3 -3
1 2 2 3 2 3 2 3 3 2 2 3 3 4 4 4 3 3 2 1 0 -1 -2 -3 -3 -4 -4 -4 -4 -4 -4 -3 -3 -3 -4 -5 -5 -5 -4 -4 -4 -3 -4 -3
1 2 2 2 2 2 2 2 3 2 3 3 3 3 3 3 3 3 2 0 -1 -2 -2 -2 -3 -4 -4 -4 -4 -5 -4 -4 -3 -3 -3 -4 -4 -5 -5 -4 -4 -4 -3 -4
1 2 2 2 3 2 2 2 4 5 5 5 4 3 4 3 2 2 1 -1 -1 -2 -2 -3 -4 -5 -4 -5 -5 -5 -4 -4 -4 -3 -4 -5 -5 -5 -4 -4 -4 -4 -4 -4
1 2 2 3 2 2 2 3 4 4 5 5 3 4 4 3 3 2 1 0 -1 -2 -2 -4 -4 -4 -5 -6 -5 -6 -5 -5 -4 -4 -4 -4 -4 -4 -4 -4 -4 -4 -3 -3
2 2 2 2 2 3 3 4 4 4 4 4 3 2 2 2 2 2 2 1 -1 -2 -3 -4 -4 -4 -5 -5 -5 -5 -5 -4 -5 -5 -5 -4 -4 -4 -4 -4 -4 -3 -3 -4
1 2 2 2 3 4 4 3 3 4 5 4 2 2 2 2 2 2 2 1 -0 -2 -3 -3 -4 -5 -5 -5 -6 -5 -5 -5 -4 -4 -4 -4 -4 -4 -3 -2 -2 -2 -4 -3
1 2 2 2 3 3 3 3 4 3 5 4 1 1 1 1 1 2 1 1 -0 -1 -2 -2 -3 -3 -4 -5 -6 -5 -5 -4 -5 -4 -3 -4 -3 -3 -3 -2 -3 -3 -3 -2
2 2 2 2 2 2 3 3 3 3 5 5 1 0 0 -0 1 1 1 -0 0 0 -1 -2 -2 -3 -4 -4 -4 -5 -5 -4 -4 -4 -4 -4 -3 -3 -3 -3 -3 -2 -3 -3
1 2 1 2 3 3 3 3 3 3 4 5 1 -1 -2 -1 -1 0 0 -0 0 -1 -1 -1 -2 -3 -3 -5 -5 -5 -5 -5 -4 -4 -4 -4 -3 -3 -3 -3 -3 -3 -3 -2
1 2 2 3 3 3 2 3 4 3 3 5 1 -2 -3 -3 -1 -0 -0 -1 -1 -1 -1 -2 -2 -3 -3 -4 -4 -4 -4 -4 -4 -4 -3 -3 -3 -3 -3 -3 -3 -4 -4 -3
2 2 2 2 2 1 3 3 3 3 3 4 2 -1 -2 -2 -2 -1 -2 -1 -2 -1 -1 -3 -2 -3 -2 -4 -5 -5 -5 -4 -4 -4 -3 -3 -2 -3 -3 -3 -3 -2 -2 -2
1 1 1 1 1 1 3 3 3 3 3 4 3 1 -2 -2 -2 -1 -2 -2 -2 -2 -2 -2 -3 -2 -2 -4 -5 -4 -5 -4 -3 -3 -3 -3 -3 -3 -3 -3 -3 -2 -2 -2
1 1 1 0 0 2 2 2 2 2 3 4 2 2 1 -0 -1 -1 -2 -2 -3 -2 -2 -3 -3 -2 -3 -4 -4 -4 -4 -3 -3 -3 -3 -3 -3 -3 -3 -3 -3 -3 -2 -2
1 1 1 1 1 1 1 1 2 2 2 2 1 1 2 -1 -0 -0 -1 -2 -3 -3 -3 -3 -3 -3 -3 -3 -3 -3 -3 -3 -2 -2 -3 -3 -3 -3 -3 -3 -3 -3 -3 -3
1 1 1 1 0 1 2 2 2 3 3 2 1 0 1 -0 -1 -0 -1 -1 -3 -3 -2 -4 -2 -2 -3 -3 -3 -3 -3 -3 -3 -3 -3 -3 -3 -2 -2 -2 -3 -3 -3 -2
1 1 -0 0 1 2 2 2 2 3 3 3 3 1 0 -0 0 0 0 -0 -2 -2 -2 -1 -1 -2 -2 -3 -3 -3 -3 -3 -3 -3 -3 -3 -3 -3 -3 -3 -2 -3 -3 -2
0 0 0 1 1 2 2 3 4 5 5 4 2 1 1 0 1 1 -0 -1 -1 -1 -1 -0 -1 -1 -2 -2 -3 -3 -3 -3 -3 -3 -3 -3 -3 -3 -3 -3 -3 -3 -3 -3
0 1 2 2 2 3 3 4 4 4 4 3 2 1 1 1 1 1 0 -1 -1 -1 0 1 -0 -1 -2 -2 -3 -3 -3 -3 -3 -3 -4 -4 -4 -4 -3 -4 -4 -4 -3 -4
1 2 2 2 3 3 3 3 3 3 3 2 1 1 1 1 1 1 1 1 1 1 1 1 -0 -1 -2 -2 -3 -3 -3 -3 -4 -4 -4 -4 -4 -4 -4 -4 -4 -4 -4 -4
1 1 2 3 3 3 3 3 3 1 1 2 1 2 1 1 1 0 1 2 2 2 1 1 -1 -1 -2 -3 -3 -3 -3 -3 -4 -4 -5 -5 -5 -5 -5 -4 -4 -4 -4 -4

GFSNW_700_temp_348.txt.gz
Temp
0 1 1 2 2 2 3 3 3 4 4 3 3 3 3 4 5 4 4 4 4 4 4 4 3 3 3 2 2 2 1 0 -1 -1 -1 -1 -0 -1 -0 -1 -3 -3 -3 -3
-0 1 1 2 2 2 2 2 4 4 3 2 3 3 4 4 4 4 3 4 4 4 3 3 2 2 2 1 2 1 0 -0 -2 -2 -1 -1 -1 -2 -1 -2 -2 -3 -5 -3
-0 1 1 1 1 1 2 3 3 3 3 3 3 3 4 4 4 4 4 4 3 3 2 2 2 1 0 1 1 -0 -1 -0 -0 -1 -1 -2 -2 -2 -1 -1 -2 -2 -3 -2
-0 1 1 1 1 1 2 3 3 3 3 3 3 3 3 3 3 3 2 2 2 2 2 1 0 -1 -1 -1 -2 -2 -1 -2 -1 -2 -2 -1 -2 -2 -2 -2 -2 -2 -2 -3
-1 1 1 1 1 1 2 2 3 3 3 3 3 3 3 3 3 2 3 3 2 1 1 0 -0 -1 -1 -1 -1 -2 -2 -3 -2 -3 -3 -2 -2 -2 -2 -2 -2 -2 -2 -3
-1 1 1 1 0 1 1 2 3 2 3 3 3 4 4 3 2 2 2 2 1 1 0 -1 -1 -2 -2 -2 -2 -2 -2 -3 -2 -4 -3 -2 -3 -3 -3 -4 -3 -3 -3 -4
-0 1 1 1 1 1 2 2 2 2 3 3 3 3 3 3 3 4 3 2 1 -0 -1 -2 -2 -3 -3 -4 -4 -3 -3 -3 -2 -4 -4 -6 -5 -4 -3 -3 -4 -4 -4 -3
-0 1 1 1 1 1 2 2 2 2 3 3 3 3 3 3 3 3 2 2 0 -1 -2 -4 -4 -4 -4 -4 -4 -4 -4 -3 -3 -3 -5 -5 -5 -4 -4 -3 -3 -4 -4 -3
-0 1 1 0 1 1 1 1 2 2 3 2 3 3 3 3 3 2 2 -1 -1 -2 -3 -3 -4 -4 -4 -5 -5 -5 -4 -3 -3 -4 -4 -5 -4 -4 -4 -4 -4 -5 -4 -4
-0 1 1 1 1 1 1 1 2 2 3 4 3 3 4 3 3 2 1 -0 -0 -2 -2 -3 -4 -4 -5 -5 -5 -5 -4 -4 -4 -3 -4 -5 -5 -5 -4 -4 -5 -4 -4 -4
-0 0 0 1 1 1 1 2 2 3 4 4 3 3 2 2 3 3 2 1 -0 -2 -2 -4 -4 -5 -5 -5 -6 -5 -5 -4 -4 -4 -4 -5 -4 -4 -4 -4 -4 -4 -4 -4
0 0 0 0 1 1 2 2 2 2 3 4 2 1 2 2 2 2 2 2 1 -1 -2 -4 -4 -5 -6 -6 -6 -6 -5 -5 -5 -4 -5 -4 -5 -5 -4 -4 -3 -4 -3 -3
0 -0 0 0 1 2 2 2 3 3 2 3 1 1 2 2 2 1 1 2 1 0 -2 -2 -3 -4 -5 -6 -6 -5 -5 -4 -5 -5 -5 -5 -4 -4 -3 -4 -3 -4 -3 -4
-0 -0 -0 1 2 2 2 2 2 2 3 3 0 1 1 3 3 3 2 2 2 0 -1 -1 -2 -3 -4 -5 -5 -4 -5 -5 -4 -4 -4 -4 -4 -3 -3 -4 -3 -3 -4 -3
-0 -0 -0 1 1 1 1 1 1 2 3 3 1 -0 1 1 2 1 1 2 1 0 -1 -1 -2 -3 -4 -5 -5 -4 -4 -4 -3 -4 -4 -4 -3 -3 -3 -3 -4 -4 -4 -4
-0 -0 0 0 1 1 2 1 2 2 3 3 1 -1 -1 -1 -1 0 1 1 1 0 -0 -1 -2 -3 -4 -5 -4 -5 -4 -4 -4 -4 -4 -4 -4 -3 -3 -3 -4 -4 -3 -3
-0 -0 -0 -0 1 2 1 2 3 1 2 4 0 -3 -2 -2 -1 0 1 1 0 -1 -1 -2 -2 -3 -4 -5 -5 -5 -4 -4 -4 -4 -4 -4 -4 -4 -3 -3 -4 -3 -3 -2
-1 -1 -0 1 1 0 1 2 2 2 2 3 2 -2 -2 -2 -2 0 0 -0 -1 -1 -1 -2 -3 -3 -4 -5 -5 -5 -5 -4 -5 -4 -4 -4 -4 -4 -4 -4 -4 -3 -2 -2
-1 -1 0 0 -0 0 2 2 2 1 2 3 3 2 -1 -2 -2 -1 -1 -1 -1 -2 -2 -2 -3 -3 -2 -4 -5 -5 -5 -4 -4 -3 -3 -3 -4 -4 -3 -3 -3 -3 -3 -3
-1 -1 -1 -1 -0 1 1 1 1 1 2 3 3 3 2 -1 -1 -1 -1 -1 -1 -2 -2 -2 -2 -1 -3 -4 -4 -4 -4 -3 -3 -3 -3 -3 -3 -3 -3 -3 -3 -3 -3 -3
-1 -1 -1 -0 1 0 0 0 1 2 2 3 2 2 3 -0 -0 -0 -1 -1 -1 -1 -2 -1 -2 -2 -2 -3 -4 -4 -3 -3 -3 -3 -3 -3 -3 -3 -3 -3 -3 -3 -3 -3
-1 -1 -0 0 -0 0 1 1 2 2 3 3 2 1 1 0 -1 -0 -1 -1 -1 -1 -1 -1 -1 -1 -2 -2 -3 -3 -3 -3 -3 -3 -3 -3 -3 -3 -3 -3 -3 -3 -3 -3
-1 -0 -0 -0 1 2 2 2 2 3 4 3 3 2 1 -0 0 0 0 -0 -1 -0 -1 -0 -0 -1 -1 -2 -3 -3 -3 -3 -3 -4 -4 -3 -3 -3 -3 -3 -3 -3 -3 -3
-0 0 -0 1 2 2 2 3 4 5 5 4 2 2 1 1 1 1 1 -0 -0 -1 0 1 1 -0 -1 -2 -3 -3 -3 -3 -3 -4 -4 -4 -4 -4 -4 -4 -4 -4 -4 -3
0 1 2 2 2 3 4 4 5 5 4 4 2 2 2 1 2 2 1 1 1 1 2 2 1 0 -1 -1 -2 -3 -3 -4 -4 -4 -4 -4 -4 -4 -4 -4 -4 -4 -4 -4
1 2 2 2 3 4 4 4 4 4 4 2 1 1 1 2 2 2 2 2 3 3 2 2 1 0 -1 -1 -2 -3 -3 -3 -4 -4 -4 -4 -4 -4 -4 -4 -4 -4 -5 -5
2 2 3 4 3 4 3 3 4 3 3 2 1 2 2 2 3 2 3 3 3 2 3 2 1 0 -1 -2 -3 -3 -3 -4 -4 -4 -4 -4 -4 -4 -4 -3 -3 -4 -4 -4

GFSNW_700_temp_351.txt.gz
Temp
-2 -1 -0 1 1 2 2 3 3 3 3 3 3 3 3 4 4 4 4 4 4 4 4 4 3 3 3 2 2 1 0 0 -0 -2 -2 -2 -0 -0 -0 -0 -3 -3 -3 -3
-2 -2 -1 1 1 2 2 2 3 3 3 2 3 3 3 4 4 4 4 4 4 4 4 3 3 2 2 2 1 0 -0 -1 -3 -3 -2 -2 -1 -1 -1 -1 -2 -3 -6 -3
-3 -2 -1 0 1 1 1 1 2 2 3 2 2 3 3 4 4 4 3 3 3 3 3 2 2 1 1 0 0 -1 -1 -1 -1 -1 -1 -2 -2 -1 -1 -1 -1 -3 -3 -3
-3 -2 -1 0 1 0 1 1 1 2 2 2 3 3 3 3 3 3 3 3 3 3 2 2 1 -0 -1 -1 -2 -2 -1 -1 -1 -1 -1 -2 -2 -2 -2 -1 -2 -3 -4 -3
-3 -3 -1 -0 0 0 0 1 1 2 2 2 3 3 3 3 3 3 3 3 3 1 1 0 -0 -1 -1 -2 -2 -2 -2 -4 -2 -3 -3 -2 -2 -2 -3 -3 -3 -3 -3 -3
-3 -2 -1 -0 0 -0 0 1 2 2 2 2 3 3 3 3 3 2 2 2 1 0 -0 -1 -2 -2 -2 -2 -2 -2 -2 -3 -3 -4 -3 -2 -3 -3 -3 -3 -3 -3 -3 -3
-3 -2 -1 -0 -0 0 0 1 2 2 2 2 3 3 3 3 3 3 2 2 0 -1 -2 -2 -3 -3 -3 -4 -4 -3 -3 -3 -3 -4 -4 -6 -4 -4 -4 -4 -4 -4 -4 -4
-3 -2 -1 0 -0 -0 0 1 1 2 2 2 2 3 3 3 3 3 2 1 -0 -1 -3 -3 -4 -4 -4 -4 -4 -4 -3 -3 -4 -4 -5 -5 -5 -4 -4 -4 -4 -4 -4 -4
-3 -1 -1 -0 -0 -0 0 1 1 2 2 2 3 2 2 2 2 2 2 -1 -2 -3 -3 -3 -4 -5 -5 -5 -5 -5 -4 -4 -3 -4 -4 -7 -5 -4 -4 -4 -3 -4 -5 -4
-3 -2 -1 -0 -0 -0 -0 1 1 2 1 3 2 3 3 2 3 3 1 -1 -2 -3 -2 -3 -4 -5 -5 -5 -5 -5 -5 -4 -4 -4 -4 -5 -5 -4 -4 -4 -4 -5 -4 -4
-2 -2 -1 -0 -1 -0 -0 1 1 2 2 2 2 2 2 3 3 3 1 -0 -1 -1 -2 -3 -4 -5 -5 -6 -6 -5 -4 -4 -4 -3 -4 -5 -5 -5 -5 -5 -5 -5 -4 -4
-3 -2 -1 -0 -1 -0 0 0 1 1 2 3 1 1 2 2 2 2 1 1 1 0 -1 -3 -4 -5 -5 -6 -6 -6 -4 -5 -5 -5 -4 -4 -4 -5 -5 -4 -5 -4 -4 -4
-3 -1 -1 -0 -0 0 -0 -0 1 1 1 2 1 2 2 3 2 1 1 2 2 1 0 -1 -3 -4 -5 -5 -5 -5 -5 -5 -5 -5 -5 -5 -5 -4 -5 -4 -4 -4 -4 -3
-2 -1 -1 -0 -0 -0 -1 0 1 1 2 2 1 2 2 2 2 1 2 2 2 1 1 0 -1 -2 -4 -5 -5 -5 -5 -5 -5 -5 -5 -4 -4 -4 -4 -4 -3 -3 -4 -4
-2 -1 -1 -0 -1 -1 -1 -0 -0 1 2 2 1 1 1 1 1 1 2 1 1 1 1 -0 -1 -3 -5 -5 -5 -5 -4 -5 -4 -5 -4 -4 -3 -3 -4 -4 -4 -3 -3 -3
-2 -1 -1 -1 -1 -1 -1 -1 -1 0 2 2 1 -0 -1 -1 0 1 1 1 1 1 1 -0 -1 -3 -5 -4 -5 -5 -4 -4 -4 -4 -4 -3 -4 -4 -4 -3 -3 -4 -4 -4
-2 -1 -1 -1 -1 -1 -1 -2 0 1 1 3 1 -2 -2 -1 -0 1 1 0 0 -0 0 -1 -1 -2 -4 -4 -5 -5 -4 -5 -5 -4 -4 -4 -4 -4 -4 -4 -4 -4 -4 -3
-2 -2 -2 -2 -2 -2 -1 -0 0 0 1 2 2 -2 -2 -1 -1 0 0 -0 -0 -0 -0 -1 -1 -2 -4 -5 -5 -5 -5 -5 -5 -5 -4 -4 -4 -4 -4 -4 -4 -4 -3 -3
-2 -2 -3 -2 -2 -2 -1 -1 -0 0 1 2 2 2 -1 -1 -1 -0 -1 -1 -1 -1 -0 -1 -2 -2 -2 -3 -5 -5 -5 -5 -4 -4 -4 -4 -4 -4 -4 -4 -4 -4 -4 -3
-3 -3 -3 -3 -2 -2 -1 -1 -1 0 1 2 3 3 2 -0 -1 -1 -1 -1 -1 -2 -2 -2 -2 -1 -1 -1 -2 -3 -3 -3 -3 -3 -4 -4 -4 -4 -4 -4 -4 -4 -4 -4
-4 -3 -3 -2 -2 -2 -2 -1 -1 0 1 2 2 2 3 -0 -0 -0 -0 -1 -1 -1 -2 -1 -1 -1 -1 -1 -2 -3 -3 -3 -3 -3 -4 -4 -4 -3 -3 -3 -3 -4 -4 -4
-2 -2 -2 -2 -3 -1 -0 -0 1 1 2 3 2 1 0 -0 -1 0 -0 0 -0 -1 -1 -1 -0 0 -1 -1 -2 -2 -3 -3 -3 -3 -3 -3 -3 -3 -3 -3 -3 -3 -3 -3
-3 -2 -2 -3 -1 -0 0 1 1 2 3 3 3 1 0 -0 0 1 1 0 -0 -1 -0 0 1 0 -1 -1 -1 -2 -3 -3 -3 -3 -3 -3 -3 -3 -4 -4 -4 -4 -4 -4
-2 -1 -2 -0 0 1 1 2 3 4 4 3 2 1 0 1 1 2 1 0 0 0 0 1 2 1 -0 -1 -2 -2 -3 -3 -3 -4 -4 -4 -4 -4 -4 -4 -4 -4 -4 -4
-1 -0 1 1 2 2 3 4 4 4 4 4 2 1 2 2 2 2 2 1 1 2 3 3 2 1 0 -0 -1 -2 -3 -3 -3 -4 -4 -4 -4 -4 -4 -4 -4 -4 -4 -5
-0 1 2 2 3 4 4 4 4 4 3 2 1 1 1 2 3 3 3 3 3 4 4 4 2 1 0 -1 -2 -2 -3 -3 -4 -4 -4 -4 -5 -4 -4 -5 -5 -5 -5 -5
1 2 3 3 4 5 4 4 5 3 2 1 2 3 2 3 3 3 4 4 4 4 4 3 2 1 0 -1 -2 -3 -3 -4 -4 -4 -4 -5 -5 -5 -4 -5 -5 -5 -5 -5